Location: Ústí nad Labem
(50.6611°N, 14.0531°E)
Time: 17:40:17
(UTC+02:00)

S-56A Canister/Altair - Pass Details

Date: 24 April 2024
Orbit: 638 x 2488 km, 38.9° (Epoch: 25 May)

Event Time Altitude Azimuth Distance (km) Brightness Sun altitude
Rises 22:51:28 0° 261° (W) 4,034 11.6 -20.0°
Reaches altitude 10° 22:56:15 10° 233° (SW) 3,474 10.8 -20.5°
Maximum altitude 22:59:28 12° 212° (SSW) 3,550 10.6 -20.7°
Enters shadow 23:02:01 11° 196° (SSW) 3,845 10.7 -20.9°
